Year,Month,Day,Hour,Minute,Value (Times are PST for temperature in C)
2007,11,15,00,00,9.10
2007,11,15,00,01,9.10
2007,11,15,00,02,9.10
2007,11,15,00,03,9.10
2007,11,15,00,04,9.10
2007,11,15,00,05,9.20
2007,11,15,00,06,9.20
2007,11,15,00,07,9.20
2007,11,15,00,08,9.20
2007,11,15,00,09,9.20
2007,11,15,00,10,9.20
2007,11,15,00,11,9.30
2007,11,15,00,12,9.20
2007,11,15,00,13,9.20
2007,11,15,00,14,9.20
2007,11,15,00,15,9.20
2007,11,15,00,16,9.20
2007,11,15,00,17,9.20
2007,11,15,00,18,9.30
2007,11,15,00,19,9.30
2007,11,15,00,20,9.20
2007,11,15,00,21,9.20
2007,11,15,00,22,9.20
2007,11,15,00,23,9.20
2007,11,15,00,24,9.20
2007,11,15,00,25,9.20
2007,11,15,00,26,9.20
2007,11,15,00,27,9.30
2007,11,15,00,28,9.30
2007,11,15,00,29,9.30
2007,11,15,00,30,9.30
2007,11,15,00,31,9.30
2007,11,15,00,32,9.30
2007,11,15,00,33,9.30
2007,11,15,00,34,9.30
2007,11,15,00,35,9.30
2007,11,15,00,36,9.30
2007,11,15,00,37,9.30
2007,11,15,00,38,9.30
2007,11,15,00,39,9.30
2007,11,15,00,40,9.30
2007,11,15,00,41,9.30
2007,11,15,00,42,9.40
2007,11,15,00,43,9.40
2007,11,15,00,44,9.40
2007,11,15,00,45,9.40
2007,11,15,00,46,9.40
2007,11,15,00,47,9.40
2007,11,15,00,48,9.40
2007,11,15,00,49,9.40
2007,11,15,00,50,9.50
2007,11,15,00,51,9.50
2007,11,15,00,52,9.50
2007,11,15,00,53,9.50
2007,11,15,00,54,9.50
2007,11,15,00,55,9.60
2007,11,15,00,56,9.60
2007,11,15,00,57,9.60
2007,11,15,00,58,9.60
2007,11,15,00,59,9.60
2007,11,15,01,00,9.60
2007,11,15,01,01,9.60
2007,11,15,01,02,9.60
2007,11,15,01,03,9.60
2007,11,15,01,04,9.60
2007,11,15,01,05,9.60
2007,11,15,01,06,9.60
2007,11,15,01,07,9.60
2007,11,15,01,08,9.60
2007,11,15,01,09,9.70
2007,11,15,01,10,9.60
2007,11,15,01,11,9.60
2007,11,15,01,12,9.60
2007,11,15,01,13,9.60
2007,11,15,01,14,9.70
2007,11,15,01,15,9.70
2007,11,15,01,16,9.70
2007,11,15,01,17,9.70
2007,11,15,01,18,9.70
2007,11,15,01,19,9.70
2007,11,15,01,20,9.70
2007,11,15,01,21,9.80
2007,11,15,01,22,9.80
2007,11,15,01,23,9.80
2007,11,15,01,24,9.80
2007,11,15,01,25,9.80
2007,11,15,01,26,9.80
2007,11,15,01,27,9.80
2007,11,15,01,28,9.80
2007,11,15,01,29,9.80
2007,11,15,01,30,9.80
2007,11,15,01,31,9.80
2007,11,15,01,32,9.80
2007,11,15,01,33,9.80
2007,11,15,01,34,9.80
2007,11,15,01,35,9.80
2007,11,15,01,36,9.80
2007,11,15,01,37,9.80
2007,11,15,01,38,9.80
2007,11,15,01,39,9.80
2007,11,15,01,40,9.80
2007,11,15,01,41,9.80
2007,11,15,01,42,9.80
2007,11,15,01,43,9.80
2007,11,15,01,44,9.80
2007,11,15,01,45,9.80
2007,11,15,01,46,9.80
2007,11,15,01,47,9.80
2007,11,15,01,48,9.80
2007,11,15,01,49,9.80
2007,11,15,01,50,9.80
2007,11,15,01,51,9.80
2007,11,15,01,52,9.80
2007,11,15,01,53,9.80
2007,11,15,01,54,9.80
2007,11,15,01,55,9.80
2007,11,15,01,56,9.80
2007,11,15,01,57,9.80
2007,11,15,01,58,9.80
2007,11,15,01,59,9.80
2007,11,15,02,00,9.90
2007,11,15,02,01,9.90
2007,11,15,02,02,9.90
2007,11,15,02,03,10.00
2007,11,15,02,04,10.00
2007,11,15,02,05,10.00
2007,11,15,02,06,10.00
2007,11,15,02,07,9.90
2007,11,15,02,08,9.90
2007,11,15,02,09,9.90
2007,11,15,02,10,9.90
2007,11,15,02,11,9.90
2007,11,15,02,12,10.00
2007,11,15,02,13,10.00
2007,11,15,02,14,10.00
2007,11,15,02,15,10.00
2007,11,15,02,16,10.10
2007,11,15,02,17,10.10
2007,11,15,02,18,10.10
2007,11,15,02,19,10.10
2007,11,15,02,20,10.10
2007,11,15,02,21,10.10
2007,11,15,02,22,10.00
2007,11,15,02,23,10.00
2007,11,15,02,24,10.00
2007,11,15,02,25,10.00
2007,11,15,02,26,10.00
2007,11,15,02,27,10.10
2007,11,15,02,28,10.10
2007,11,15,02,29,10.10
2007,11,15,02,30,10.10
2007,11,15,02,31,10.10
2007,11,15,02,32,10.10
2007,11,15,02,33,10.20
2007,11,15,02,34,10.20
2007,11,15,02,35,10.20
2007,11,15,02,36,10.20
2007,11,15,02,37,10.20
2007,11,15,02,38,10.20
2007,11,15,02,39,10.20
2007,11,15,02,40,10.20
2007,11,15,02,41,10.20
2007,11,15,02,42,10.20
2007,11,15,02,43,10.20
2007,11,15,02,44,10.20
2007,11,15,02,45,10.20
2007,11,15,02,46,10.20
2007,11,15,02,47,10.20
2007,11,15,02,48,10.30
2007,11,15,02,49,10.30
2007,11,15,02,50,10.30
2007,11,15,02,51,10.30
2007,11,15,02,52,10.40
2007,11,15,02,53,10.40
2007,11,15,02,54,10.40
2007,11,15,02,55,10.30
2007,11,15,02,56,10.40
2007,11,15,02,57,10.30
2007,11,15,02,58,10.30
2007,11,15,02,59,10.30
2007,11,15,03,00,10.30
2007,11,15,03,01,10.40
2007,11,15,03,02,10.40
2007,11,15,03,03,10.40
2007,11,15,03,04,10.40
2007,11,15,03,05,10.40
2007,11,15,03,06,10.40
2007,11,15,03,07,10.30
2007,11,15,03,08,10.30
2007,11,15,03,09,10.30
2007,11,15,03,10,10.30
2007,11,15,03,11,10.30
2007,11,15,03,12,10.30
2007,11,15,03,13,10.30
2007,11,15,03,14,10.30
2007,11,15,03,15,10.30
2007,11,15,03,16,10.30
2007,11,15,03,17,10.30
2007,11,15,03,18,10.30
2007,11,15,03,19,10.30
2007,11,15,03,20,10.30
2007,11,15,03,21,10.30
2007,11,15,03,22,10.30
2007,11,15,03,23,10.30
2007,11,15,03,24,10.30
2007,11,15,03,25,10.30
2007,11,15,03,26,10.30
2007,11,15,03,27,10.30
2007,11,15,03,28,10.30
2007,11,15,03,29,10.30
2007,11,15,03,30,10.30
2007,11,15,03,31,10.30
2007,11,15,03,32,10.40
2007,11,15,03,33,10.40
2007,11,15,03,34,10.40
2007,11,15,03,35,10.40
2007,11,15,03,36,10.40
2007,11,15,03,37,10.40
2007,11,15,03,38,10.40
2007,11,15,03,39,10.50
2007,11,15,03,40,10.50
2007,11,15,03,41,10.50
2007,11,15,03,42,10.50
2007,11,15,03,43,10.60
2007,11,15,03,44,10.60
2007,11,15,03,45,10.60
2007,11,15,03,46,10.60
2007,11,15,03,47,10.70
2007,11,15,03,48,10.70
2007,11,15,03,49,10.70
2007,11,15,03,50,10.70
2007,11,15,03,51,10.70
2007,11,15,03,52,10.70
2007,11,15,03,53,10.70
2007,11,15,03,54,10.80
2007,11,15,03,55,10.80
2007,11,15,03,56,10.80
2007,11,15,03,57,10.80
2007,11,15,03,58,10.80
2007,11,15,03,59,10.80
2007,11,15,04,00,10.80
2007,11,15,04,01,10.80
2007,11,15,04,02,10.80
2007,11,15,04,03,10.80
2007,11,15,04,04,10.80
2007,11,15,04,05,10.80
2007,11,15,04,06,10.80
2007,11,15,04,07,10.80
2007,11,15,04,08,10.80
2007,11,15,04,09,10.80
2007,11,15,04,10,10.80
2007,11,15,04,11,10.80
2007,11,15,04,12,10.80
2007,11,15,04,13,10.80
2007,11,15,04,14,10.80
2007,11,15,04,15,10.80
2007,11,15,04,16,10.80
2007,11,15,04,17,10.80
2007,11,15,04,18,10.80
2007,11,15,04,19,10.80
2007,11,15,04,20,10.80
2007,11,15,04,21,10.80
2007,11,15,04,22,10.80
2007,11,15,04,23,10.80
2007,11,15,04,24,10.80
2007,11,15,04,25,10.80
2007,11,15,04,26,10.80
2007,11,15,04,27,10.90
2007,11,15,04,28,11.00
2007,11,15,04,29,11.10
2007,11,15,04,30,11.20
2007,11,15,04,31,11.10
2007,11,15,04,32,11.10
2007,11,15,04,33,11.10
2007,11,15,04,34,11.00
2007,11,15,04,35,11.00
2007,11,15,04,36,11.10
2007,11,15,04,37,11.20
2007,11,15,04,38,11.30
2007,11,15,04,39,11.30
2007,11,15,04,40,11.50
2007,11,15,04,41,11.60
2007,11,15,04,42,11.70
2007,11,15,04,43,11.80
2007,11,15,04,44,11.70
2007,11,15,04,45,11.70
2007,11,15,04,46,11.70
2007,11,15,04,47,11.70
2007,11,15,04,48,11.80
2007,11,15,04,49,11.80
2007,11,15,04,50,11.90
2007,11,15,04,51,12.00
2007,11,15,04,52,12.20
2007,11,15,04,53,12.20
2007,11,15,04,54,12.30
2007,11,15,04,55,12.40
2007,11,15,04,56,12.50
2007,11,15,04,57,12.60
2007,11,15,04,58,12.70
2007,11,15,04,59,12.70
2007,11,15,05,00,12.70
2007,11,15,05,01,12.70
2007,11,15,05,02,12.70
2007,11,15,05,03,12.70
2007,11,15,05,04,12.60
2007,11,15,05,05,12.60
2007,11,15,05,06,12.60
2007,11,15,05,07,12.60
2007,11,15,05,08,12.60
2007,11,15,05,09,12.70
2007,11,15,05,10,12.70
2007,11,15,05,11,12.70
2007,11,15,05,12,12.70
2007,11,15,05,13,12.70
2007,11,15,05,14,12.70
2007,11,15,05,15,12.70
2007,11,15,05,16,12.70
2007,11,15,05,17,12.70
2007,11,15,05,18,12.70
2007,11,15,05,19,12.70
2007,11,15,05,20,12.60
2007,11,15,05,21,12.60
2007,11,15,05,22,12.60
2007,11,15,05,23,12.60
2007,11,15,05,24,12.60
2007,11,15,05,25,12.70
2007,11,15,05,26,12.60
2007,11,15,05,27,12.60
2007,11,15,05,28,12.60
2007,11,15,05,29,12.70
2007,11,15,05,30,12.70
2007,11,15,05,31,12.70
2007,11,15,05,32,12.70
2007,11,15,05,33,12.70
2007,11,15,05,34,12.70
2007,11,15,05,35,12.70
2007,11,15,05,36,12.70
2007,11,15,05,37,12.70
2007,11,15,05,38,12.70
2007,11,15,05,39,12.80
2007,11,15,05,40,12.80
2007,11,15,05,41,12.80
2007,11,15,05,42,12.80
2007,11,15,05,43,12.70
2007,11,15,05,44,12.70
2007,11,15,05,45,12.70
2007,11,15,05,46,12.70
2007,11,15,05,47,12.80
2007,11,15,05,48,12.70
2007,11,15,05,49,12.70
2007,11,15,05,50,12.70
2007,11,15,05,51,12.70
2007,11,15,05,52,12.70
2007,11,15,05,53,12.70
2007,11,15,05,54,12.80
2007,11,15,05,55,12.70
2007,11,15,05,56,12.70
2007,11,15,05,57,12.70
2007,11,15,05,58,12.70
2007,11,15,05,59,12.70
2007,11,15,06,00,12.70
2007,11,15,06,01,12.70
2007,11,15,06,02,12.70
2007,11,15,06,03,12.70
2007,11,15,06,04,12.70
2007,11,15,06,05,12.70
2007,11,15,06,06,12.70
2007,11,15,06,07,12.60
2007,11,15,06,08,12.60
2007,11,15,06,09,12.60
2007,11,15,06,10,12.60
2007,11,15,06,11,12.60
2007,11,15,06,12,12.60
2007,11,15,06,13,12.60
2007,11,15,06,14,12.60
2007,11,15,06,15,12.60
2007,11,15,06,16,12.60
2007,11,15,06,17,12.60
2007,11,15,06,18,12.60
2007,11,15,06,19,12.60
2007,11,15,06,20,12.50
2007,11,15,06,21,12.50
2007,11,15,06,22,12.50
2007,11,15,06,23,12.40
2007,11,15,06,24,12.40
2007,11,15,06,25,12.40
2007,11,15,06,26,12.40
2007,11,15,06,27,12.30
2007,11,15,06,28,12.30
2007,11,15,06,29,12.30
2007,11,15,06,30,12.30
2007,11,15,06,31,12.30
2007,11,15,06,32,12.30
2007,11,15,06,33,12.30
2007,11,15,06,34,12.30
2007,11,15,06,35,12.30
2007,11,15,06,36,12.30
2007,11,15,06,37,12.30
2007,11,15,06,38,12.30
2007,11,15,06,39,12.20
2007,11,15,06,40,12.20
2007,11,15,06,41,12.20
2007,11,15,06,42,12.20
2007,11,15,06,43,12.20
2007,11,15,06,44,12.20
2007,11,15,06,45,12.20
2007,11,15,06,46,12.20
2007,11,15,06,47,12.20
2007,11,15,06,48,12.10
2007,11,15,06,49,12.10
2007,11,15,06,50,12.10
2007,11,15,06,51,12.10
2007,11,15,06,52,12.10
2007,11,15,06,53,12.10
2007,11,15,06,54,12.10
2007,11,15,06,55,12.00
2007,11,15,06,56,12.00
2007,11,15,06,57,12.00
2007,11,15,06,58,12.00
2007,11,15,06,59,12.00
2007,11,15,07,00,11.90
2007,11,15,07,01,11.90
2007,11,15,07,02,11.90
2007,11,15,07,03,11.90
2007,11,15,07,04,11.90
2007,11,15,07,05,11.90
2007,11,15,07,06,11.90
2007,11,15,07,07,11.90
2007,11,15,07,08,11.90
2007,11,15,07,09,11.90
2007,11,15,07,10,11.90
2007,11,15,07,11,11.90
2007,11,15,07,12,11.90
2007,11,15,07,13,11.90
2007,11,15,07,14,11.90
2007,11,15,07,15,11.90
2007,11,15,07,16,11.90
2007,11,15,07,17,11.90
2007,11,15,07,18,11.90
2007,11,15,07,19,11.90
2007,11,15,07,20,11.80
2007,11,15,07,21,11.80
2007,11,15,07,22,11.80
2007,11,15,07,23,11.80
2007,11,15,07,24,11.70
2007,11,15,07,25,11.70
2007,11,15,07,26,11.70
2007,11,15,07,27,11.60
2007,11,15,07,28,11.60
2007,11,15,07,29,11.60
2007,11,15,07,30,11.50
2007,11,15,07,31,11.50
2007,11,15,07,32,11.40
2007,11,15,07,33,11.30
2007,11,15,07,34,11.30
2007,11,15,07,35,11.30
2007,11,15,07,36,11.20
2007,11,15,07,37,11.20
2007,11,15,07,38,11.20
2007,11,15,07,39,11.20
2007,11,15,07,40,11.20
2007,11,15,07,41,11.20
2007,11,15,07,42,11.20
2007,11,15,07,43,11.20
2007,11,15,07,44,11.20
2007,11,15,07,45,11.30
2007,11,15,07,46,11.30
2007,11,15,07,47,11.30
2007,11,15,07,48,11.30
2007,11,15,07,49,11.30
2007,11,15,07,50,11.30
2007,11,15,07,51,11.30
2007,11,15,07,52,11.30
2007,11,15,07,53,11.30
2007,11,15,07,54,11.30
2007,11,15,07,55,11.30
2007,11,15,07,56,11.30
